Flag for Mexico Weather past 2 weeks in Mexico City, Federal District, Mexico

Now
59 °F

Clear.


Feels Like: 58 °F
Forecast: 44 / 76 °F
Wind: 6 mph from West

Location: Mexico City / Licenci

Current Time: Mar 31, 2015 at 1:41:45 AM

Latest Report: Mar 31, 2015 at 12:54 AM


Visibility: 15 mi

Pressure: 30.38 "Hg

Humidity: 48%

Dew point: 39 °F

Location of Mexico CityLocation

Historic Weather in Mexico City — Graph

°F

Mexico City temperature yesterday

Maximum temperature yesterday: 73 °F (at 4:48 PM)
Minimum temperature yesterday: 48 °F (at 4:45 AM)
Average temperature yesterday: 58 °F

Past Weeks' High & Low Weather Summary

 TemperatureHumidityPressure
High75 °F (Mar 16, 1:42 PM)94% (Mar 28, 5:45 AM)30.49 "Hg (Mar 28, 5:45 AM)
Low48 °F (Mar 30, 4:45 AM)17% (Mar 30, 6:48 PM)29.66 "Hg (Mar 19, 5:56 PM)
Average61 °F59%30.21 "Hg
* Reported Mar 15 11:45 PM — Mar 30 11:46 PM, Mexico City, Weather by CustomWeather, © 2015

Note: Actual official high and low records may vary slightly from our data, if they occured in-between our weather recording intervals... More about our weather records

Advertising

Mexico City weather history for previous 24 hours

 ConditionsComfort  
Time TempWeatherWind HumidityBarometerVisibility
11:46 PM
Mon, Mar 30
61 °FClear.7 mph39%29.90 "Hg15 mi
10:47 PM61 °FClear.8 mph42%30.39 "Hg15 mi
9:45 PM63 °FClear.6 mph42%30.39 "Hg15 mi
8:46 PM63 °FClear.14 mph42%29.91 "Hg15 mi
7:45 PM66 °FClear.17 mph35%30.33 "Hg15 mi
6:48 PM70 °FSunny.10 mph17%30.31 "Hg15 mi
4:48 PM73 °FSunny.8 mph20%30.30 "Hg15 mi
3:49 PM72 °FSunny.8 mph20%30.32 "Hg15 mi
11:47 AM68 °FSunny.2 mph24%29.97 "Hg10 mi
10:47 AM64 °FSunny.2 mph28%30.46 "Hg10 mi
9:21 AM59 °FSunny.3 mph55%30.46 "Hg10 mi
8:22 AM54 °FSunny.6 mph63%30.45 "Hg12 mi
8:06 AM54 °FSleet. Cloudy.N/A63%30.44 "HgN/A
7:25 AM50 °FSunny.6 mph67%30.43 "Hg15 mi
6:48 AM48 °FSunny.5 mph71%30.42 "Hg15 mi
6:20 AM48 °FClear.6 mph76%30.42 "Hg15 mi
5:52 AM48 °FClear.5 mph76%30.01 "Hg15 mi
4:45 AM48 °FClear.3 mph76%30.39 "Hg15 mi
3:43 AM50 °FClear.5 mph71%30.39 "Hg15 mi
2:54 AM54 °FClear.2 mph67%29.99 "Hg15 mi
1:51 AM55 °FClear.6 mph63%30.41 "Hg15 mi
Weather by CustomWeather, © 2015

See weather overviewHow to use our weather pages